Location: Korczew
(51.3586°N, 19.4491°E)
Time: 08:45:43
(UTC+00:00)

Cosmos 2221 - Pass Details

Date: 19 May 2025
Orbit: 572 x 593 km, 82.5° (Epoch: 16 June)

Event Time Altitude Azimuth Distance (km) Brightness Sun altitude
Exits shadow 20:01:12 15° 147° (SSE) 1,572 4.0 -10.8°
Maximum altitude 20:04:00 32° 91° (E) 1,007 3.3 -11.0°
Drops below altitude 10° 20:07:43 10° 28° (NNE) 1,897 5.4 -11.4°
Sets 20:10:04 0° 18° (NNE) 2,798 6.5 -11.6°
